Location: Allos
(44.2333°N, 6.6333°E)
Time: 03:07:58
(UTC+00:00)

X-37B - Pass Details

Date: 12 March 2021
Orbit: 380 x 394 km, 45.0° (Epoch: 07 April)

Event Time Altitude Azimuth Distance (km) Brightness Sun altitude
Rises 18:16:25 0° 215° (SW) 2,258 4.9 -8.1°
Reaches altitude 10° 18:18:48 10° 198° (SSW) 1,411 3.6 -8.5°
Maximum altitude 18:21:14 20° 148° (SSE) 956 2.2 -8.9°
Enters shadow 18:23:06 13° 106° (ESE) 1,247 2.5 -9.3°
